This is the latest recevied weather packets stored in our database for station/object KH6DH-13. If no packets are shown the sender has not sent any weather packets the latest 10 day(s).
| Time | Temp. | Humidity | Pressure | Rain* | Wind** | Luminosity | Snow |
|---|---|---|---|---|---|---|---|
| 1778148998 | 23.89° C | - | - | 0 mm | 0.45 m/s, 10° | - | - |
| 1778148397 | 23.89° C | - | - | 0 mm | 1.79 m/s, 90° | - | - |
| 1778147796 | 24.44° C | - | - | 0 mm | 1.79 m/s, 65° | - | - |
| 1778147193 | 23.89° C | - | - | 0 mm | 1.34 m/s, 76° | - | - |
| 1778146592 | 23.89° C | - | - | 0 mm | 0.89 m/s, 103° | - | - |
| 1778145991 | 23.89° C | - | - | 0 mm | 1.79 m/s, 39° | - | - |
| 1778145390 | 23.89° C | - | - | 0 mm | 1.34 m/s, 7° | - | - |
| 1778144789 | 23.89° C | - | - | 0 mm | 1.34 m/s, 42° | - | - |
| 1778144188 | 23.89° C | - | - | 0 mm | 1.34 m/s, 122° | - | - |
| 1778143587 | 24.44° C | - | - | 0 mm | 1.34 m/s, 101° | - | - |
| 1778142986 | 24.44° C | - | - | 0 mm | 1.79 m/s, 93° | - | - |
| 1778142385 | 23.89° C | - | - | 0 mm | 1.79 m/s, 104° | - | - |
| 1778141784 | 24.44° C | - | - | 0 mm | 1.79 m/s, 87° | - | - |
| 1778141183 | 23.89° C | - | - | 0 mm | 1.34 m/s, 84° | - | - |
| 1778140582 | 24.44° C | - | - | 0 mm | 0.89 m/s, 100° | - | - |
| 1778139981 | 24.44° C | - | - | 0 mm | 2.24 m/s, 104° | - | - |
| 1778139380 | 24.44° C | - | - | 0 mm | 0.89 m/s, 113° | - | - |
| 1778138779 | 24.44° C | - | - | 0 mm | 1.34 m/s, 93° | - | - |
| 1778138178 | 24.44° C | - | - | 0 mm | 2.24 m/s, 70° | - | - |
| 1778137577 | 25° C | - | - | 0 mm | 2.24 m/s, 56° | - | - |
| 1778136976 | 24.44° C | - | - | 0 mm | 1.79 m/s, 49° | - | - |
| 1778136375 | 25° C | - | - | 0 mm | 0.89 m/s, 66° | - | - |
| 1778135774 | 24.44° C | - | - | 0 mm | 1.79 m/s, 55° | - | - |
| 1778135173 | 24.44° C | - | - | 0 mm | 0.89 m/s, 80° | - | - |
| 1778134572 | 24.44° C | - | - | 0 mm | 0.45 m/s, 98° | - | - |
* Rain latest hour (hover to see other rain measurements)
** Current wind speed in m/s (hover to see current wind gust speed)